Flag for Canada Weather past 2 weeks in Saint John, New Brunswick, Canada

Now
-2 °F

Clear.


Feels Like: -2 °F
Forecast: 2 / 21 °F
Wind: No wind

Location: Saint John

Current Time: Feb 27, 2015 at 8:54:07 PM

Latest Report: Feb 27, 2015 at 8:00 PM


Visibility: 15 mi

Pressure: 30.33 "Hg

Humidity: 77%

Dew point: -8 °F

Location of Saint JohnLocation

Historic Weather in Saint John — Graph

°F

Saint John temperature yesterday

Maximum temperature yesterday: 14 °F (at 12:00 AM)
Minimum temperature yesterday: 7 °F (at 7:00 AM)
Average temperature yesterday: 10 °F

Past Weeks' High & Low Weather Summary

 TemperatureHumidityPressure
High36 °F (Feb 22, 4:54 AM)100% (Feb 22, 12:00 AM)30.52 "Hg (Feb 22, 12:00 AM)
Low-11 °F (Feb 14, 8:00 AM)35% (Feb 21, 1:00 PM)29.09 "Hg (Feb 15, 6:00 PM)
Average12 °F70%29.84 "Hg
* Reported Feb 12 7:00 PM — Feb 27 7:00 PM, Saint John, Weather by CustomWeather, © 2015

Note: Actual official high and low records may vary slightly from our data, if they occured in-between our weather recording intervals... More about our weather records

Advertising

Saint John weather history for previous 24 hours

 ConditionsComfort  
Time TempWeatherWind HumidityBarometerVisibility
7:00 PM
Fri, Feb 27
10 °FClear.7 mph56%30.31 "Hg15 mi
6:00 PM14 °FPassing clouds.5 mph48%30.28 "Hg15 mi
5:00 PM16 °FPassing clouds.9 mph48%30.26 "Hg15 mi
4:00 PM18 °FPassing clouds.7 mph41%30.25 "Hg15 mi
3:00 PM16 °FPassing clouds.9 mph41%30.23 "Hg15 mi
2:00 PM16 °FPassing clouds.6 mph41%30.23 "Hg15 mi
1:00 PM12 °FPassing clouds.10 mph44%30.24 "Hg15 mi
12:00 PM10 °FPassing clouds.9 mph47%30.25 "Hg15 mi
11:00 AM7 °FScattered clouds.13 mph51%30.26 "Hg15 mi
10:00 AM7 °FScattered clouds.12 mph47%30.24 "Hg15 mi
9:00 AM3 °FPassing clouds.9 mph55%30.24 "Hg15 mi
8:00 AM1 °FPassing clouds.8 mph60%30.20 "Hg15 mi
7:00 AM0 °FPassing clouds.10 mph65%30.16 "Hg15 mi
6:00 AM0 °FPassing clouds.8 mph65%30.12 "Hg15 mi
5:00 AM3 °FMostly cloudy.9 mph60%30.11 "Hg15 mi
4:00 AM5 °FOvercast.13 mph55%30.09 "Hg15 mi
3:00 AM7 °FMostly cloudy.12 mph61%30.08 "Hg15 mi
2:00 AM7 °FPassing clouds.15 mph56%30.05 "Hg15 mi
1:00 AM9 °FPassing clouds.14 mph56%30.04 "Hg15 mi
12:00 AM9 °FMostly cloudy.12 mph61%30.01 "Hg15 mi
11:00 PM
Thu, Feb 26
9 °FMostly cloudy.9 mph61%30.00 "Hg15 mi
10:00 PM10 °FOvercast.9 mph56%30.00 "Hg15 mi
9:00 PM10 °FOvercast.9 mph56%30.01 "Hg15 mi
8:00 PM10 °FOvercast.12 mph56%30.00 "Hg15 mi
Weather by CustomWeather, © 2015

See weather overviewHow to use our weather pages